Time,TemperatureF,DewpointF,PressureIn,WindDirection,WindDirectionDegrees,WindSpeedMPH,WindSpeedGustMPH,Humidity,HourlyPrecipIn,Conditions,Clouds,dailyrainin,SoftwareType,DateUTC
2013-07-11 00:00:00,72.1,42.1,29.86,SSW,202,5.1,6.9,34,0.00,,,0.00,LWC V1.12 B30,2013-07-11 07:00:00,
2013-07-11 00:05:00,72.1,41.3,29.86,SSE,157,2.7,6.7,33,0.00,,,0.00,LWC V1.12 B30,2013-07-11 07:05:00,
2013-07-11 00:10:00,72.0,41.2,29.86,South,180,2.9,8.3,33,0.00,,,0.00,LWC V1.12 B30,2013-07-11 07:10:00,
2013-07-11 00:15:00,71.8,41.0,29.86,SE,135,3.4,5.8,33,0.00,,,0.00,LWC V1.12 B30,2013-07-11 07:15:00,
2013-07-11 00:20:00,71.6,40.9,29.86,SSE,157,5.1,10.3,33,0.00,,,0.00,LWC V1.12 B30,2013-07-11 07:20:00,
2013-07-11 00:25:00,71.4,40.7,29.87,South,180,3.6,5.6,33,0.00,,,0.00,LWC V1.12 B30,2013-07-11 07:25:00,
2013-07-11 00:30:00,71.4,40.7,29.86,South,180,2.0,4.5,33,0.00,,,0.00,LWC V1.12 B30,2013-07-11 07:30:00,
2013-07-11 00:35:00,71.2,40.5,29.87,SSE,157,2.2,5.1,33,0.00,,,0.00,LWC V1.12 B30,2013-07-11 07:35:00,
2013-07-11 00:40:00,70.9,41.0,29.87,SSE,157,4.7,4.7,34,0.00,,,0.00,LWC V1.12 B30,2013-07-11 07:40:00,
2013-07-11 00:45:00,70.7,40.8,29.86,South,180,3.6,5.8,34,0.00,,,0.00,LWC V1.12 B30,2013-07-11 07:45:00,
2013-07-11 00:50:00,70.5,40.6,29.86,SE,135,4.9,6.0,34,0.00,,,0.00,LWC V1.12 B30,2013-07-11 07:50:00,
2013-07-11 00:55:00,70.3,40.5,29.86,SSE,157,6.9,10.7,34,0.00,,,0.00,LWC V1.12 B30,2013-07-11 07:55:00,
2013-07-11 01:00:00,70.2,40.3,29.86,SSE,157,3.4,7.8,34,0.00,,,0.00,LWC V1.12 B30,2013-07-11 08:00:00,
2013-07-11 01:05:00,70.2,40.3,29.86,South,180,2.5,7.8,34,0.00,,,0.00,LWC V1.12 B30,2013-07-11 08:05:00,
2013-07-11 01:10:00,70.0,40.2,29.86,SE,135,9.2,9.6,34,0.00,,,0.00,LWC V1.12 B30,2013-07-11 08:10:00,
2013-07-11 01:16:00,70.0,40.2,29.86,SSW,202,4.0,5.8,34,0.00,,,0.00,LWC V1.12 B30,2013-07-11 08:16:00,
2013-07-11 01:22:00,69.6,39.8,29.87,SSW,202,4.7,9.6,34,0.00,,,0.00,LWC V1.12 B30,2013-07-11 08:22:00,
2013-07-11 01:27:00,69.6,39.8,29.87,SSW,202,4.2,7.6,34,0.00,,,0.00,LWC V1.12 B30,2013-07-11 08:27:00,
2013-07-11 01:33:00,69.4,40.4,29.87,South,180,4.2,6.9,35,0.00,,,0.00,LWC V1.12 B30,2013-07-11 08:33:00,
2013-07-11 01:38:00,69.1,40.1,29.86,SSE,157,3.1,8.7,35,0.00,,,0.00,LWC V1.12 B30,2013-07-11 08:38:00,
2013-07-11 01:43:00,68.7,39.8,29.87,SSE,157,4.7,10.5,35,0.00,,,0.00,LWC V1.12 B30,2013-07-11 08:43:00,
2013-07-11 01:48:00,68.4,39.4,29.87,SSE,157,5.4,11.4,35,0.00,,,0.00,LWC V1.12 B30,2013-07-11 08:48:00,
2013-07-11 01:53:00,68.2,39.3,29.86,South,180,12.7,12.7,35,0.00,,,0.00,LWC V1.12 B30,2013-07-11 08:53:00,
2013-07-11 01:58:00,67.8,38.9,29.87,SE,135,5.1,10.3,35,0.00,,,0.00,LWC V1.12 B30,2013-07-11 08:58:00,
2013-07-11 02:03:00,67.6,38.8,29.87,South,180,8.5,10.5,35,0.00,,,0.00,LWC V1.12 B30,2013-07-11 09:03:00,
2013-07-11 02:08:00,67.6,39.5,29.87,SE,135,13.0,19.2,36,0.00,,,0.00,LWC V1.12 B30,2013-07-11 09:08:00,
2013-07-11 02:13:00,67.3,40.0,29.87,SE,135,9.2,9.2,37,0.00,,,0.00,LWC V1.12 B30,2013-07-11 09:13:00,
2013-07-11 02:18:00,67.1,39.8,29.87,South,180,11.4,11.4,37,0.00,,,0.00,LWC V1.12 B30,2013-07-11 09:18:00,
2013-07-11 02:23:00,66.9,39.6,29.86,South,180,7.6,8.5,37,0.00,,,0.00,LWC V1.12 B30,2013-07-11 09:23:00,
2013-07-11 02:28:00,66.7,40.2,29.87,SE,135,8.3,14.8,38,0.00,,,0.00,LWC V1.12 B30,2013-07-11 09:28:00,
2013-07-11 02:33:00,66.6,40.0,29.87,SSE,157,9.6,13.0,38,0.00,,,0.00,LWC V1.12 B30,2013-07-11 09:33:00,
2013-07-11 02:38:00,66.2,40.5,29.88,SE,135,10.7,19.7,39,0.00,,,0.00,LWC V1.12 B30,2013-07-11 09:38:00,
2013-07-11 02:43:00,66.0,40.3,29.88,SSE,157,5.8,14.3,39,0.00,,,0.00,LWC V1.12 B30,2013-07-11 09:43:00,
2013-07-11 02:48:00,65.8,40.1,29.87,SSE,157,8.9,16.5,39,0.00,,,0.00,LWC V1.12 B30,2013-07-11 09:48:00,
2013-07-11 02:53:00,65.5,39.8,29.88,SSE,157,6.5,13.2,39,0.00,,,0.00,LWC V1.12 B30,2013-07-11 09:53:00,
2013-07-11 02:58:00,65.3,39.7,29.87,SE,135,11.2,14.1,39,0.00,,,0.00,LWC V1.12 B30,2013-07-11 09:58:00,
2013-07-11 03:03:00,65.1,40.2,29.88,SE,135,14.5,14.5,40,0.00,,,0.00,LWC V1.12 B30,2013-07-11 10:03:00,
2013-07-11 03:08:00,64.9,40.0,29.88,South,180,7.6,13.4,40,0.00,,,0.00,LWC V1.12 B30,2013-07-11 10:08:00,
2013-07-11 03:13:00,64.8,39.9,29.88,SSE,157,15.9,15.9,40,0.00,,,0.00,LWC V1.12 B30,2013-07-11 10:13:00,
2013-07-11 03:18:00,64.6,40.3,29.88,South,180,5.8,14.1,41,0.00,,,0.00,LWC V1.12 B30,2013-07-11 10:18:00,
2013-07-11 03:23:00,64.6,40.3,29.89,SSE,157,8.3,13.0,41,0.00,,,0.00,LWC V1.12 B30,2013-07-11 10:23:00,
2013-07-11 03:28:00,64.2,40.0,29.89,South,180,10.3,12.1,42,0.00,,,0.00,LWC V1.12 B30,2013-07-11 10:28:00,
2013-07-11 03:33:00,64.0,40.4,29.90,South,180,7.6,15.9,42,0.00,,,0.00,LWC V1.12 B30,2013-07-11 10:33:00,
2013-07-11 03:38:00,64.0,40.4,29.90,SSE,157,13.2,15.2,42,0.00,,,0.00,LWC V1.12 B30,2013-07-11 10:38:00,
2013-07-11 03:43:00,63.7,40.6,29.90,South,180,12.1,13.6,43,0.00,,,0.00,LWC V1.12 B30,2013-07-11 10:43:00,
2013-07-11 03:48:00,63.7,41.2,29.90,SSE,157,13.9,16.5,44,0.00,,,0.00,LWC V1.12 B30,2013-07-11 10:48:00,
2013-07-11 03:53:00,63.5,41.1,29.90,South,180,12.5,12.5,44,0.00,,,0.00,LWC V1.12 B30,2013-07-11 10:53:00,
2013-07-11 03:58:00,63.3,40.9,29.90,SSE,157,7.2,11.6,44,0.00,,,0.00,LWC V1.12 B30,2013-07-11 10:58:00,
2013-07-11 04:03:00,63.3,40.9,29.88,SSE,157,4.5,13.6,44,0.00,,,0.00,LWC V1.12 B30,2013-07-11 11:03:00,
2013-07-11 04:08:00,63.1,41.5,29.88,ESE,112,11.0,16.3,45,0.00,,,0.00,LWC V1.12 B30,2013-07-11 11:08:00,
2013-07-11 04:13:00,63.1,41.3,29.89,SE,135,9.6,15.7,45,0.00,,,0.00,LWC V1.12 B30,2013-07-11 11:13:00,
2013-07-11 04:18:00,63.1,41.3,29.90,SE,135,8.5,17.2,45,0.00,,,0.00,LWC V1.12 B30,2013-07-11 11:18:00,
2013-07-11 04:23:00,63.1,41.3,29.89,SSE,157,8.9,12.1,45,0.00,,,0.00,LWC V1.12 B30,2013-07-11 11:23:00,
2013-07-11 04:28:00,63.1,41.3,29.89,SSW,202,12.7,14.5,45,0.00,,,0.00,LWC V1.12 B30,2013-07-11 11:28:00,
2013-07-11 04:33:00,63.1,41.9,29.89,SSE,157,9.2,15.7,46,0.00,,,0.00,LWC V1.12 B30,2013-07-11 11:33:00,
2013-07-11 04:38:00,63.1,41.9,29.89,South,180,7.8,10.7,46,0.00,,,0.00,LWC V1.12 B30,2013-07-11 11:38:00,
2013-07-11 04:43:00,63.0,41.7,29.89,SSE,157,8.9,11.6,46,0.00,,,0.00,LWC V1.12 B30,2013-07-11 11:43:00,
2013-07-11 04:48:00,62.8,41.6,29.89,SSE,157,8.5,15.9,46,0.00,,,0.00,LWC V1.12 B30,2013-07-11 11:48:00,
2013-07-11 04:53:00,62.6,41.4,29.89,South,180,7.6,15.2,46,0.00,,,0.00,LWC V1.12 B30,2013-07-11 11:53:00,
2013-07-11 04:58:00,62.4,41.8,29.89,SSE,157,11.9,11.9,47,0.00,,,0.00,LWC V1.12 B30,2013-07-11 11:58:00,
2013-07-11 05:03:00,62.2,41.6,29.89,SSE,157,10.1,10.1,47,0.00,,,0.00,LWC V1.12 B30,2013-07-11 12:03:00,
2013-07-11 05:08:00,62.1,42.1,29.90,SSW,202,9.8,14.3,48,0.00,,,0.00,LWC V1.12 B30,2013-07-11 12:08:00,
2013-07-11 05:13:00,61.9,41.9,29.90,SSE,157,11.0,12.5,48,0.00,,,0.00,LWC V1.12 B30,2013-07-11 12:13:00,
2013-07-11 05:18:00,61.9,41.9,29.90,SSE,157,10.3,10.7,48,0.00,,,0.00,LWC V1.12 B30,2013-07-11 12:18:00,
2013-07-11 05:23:00,61.7,41.7,29.90,SE,135,4.9,14.5,48,0.00,,,0.00,LWC V1.12 B30,2013-07-11 12:23:00,
2013-07-11 05:28:00,61.5,42.2,29.90,SE,135,9.6,13.2,49,0.00,,,0.00,LWC V1.12 B30,2013-07-11 12:28:00,
2013-07-11 05:33:00,61.3,42.0,29.90,South,180,17.2,17.2,49,0.00,,,0.00,LWC V1.12 B30,2013-07-11 12:33:00,
2013-07-11 05:39:00,61.0,41.7,29.90,SE,135,19.0,19.0,49,0.00,,,0.00,LWC V1.12 B30,2013-07-11 12:39:00,
2013-07-11 05:44:00,60.8,41.5,29.91,South,180,7.4,14.3,49,0.00,,,0.00,LWC V1.12 B30,2013-07-11 12:44:00,
2013-07-11 05:49:00,61.0,41.7,29.91,SSE,157,10.1,21.0,49,0.00,,,0.00,LWC V1.12 B30,2013-07-11 12:49:00,
2013-07-11 05:54:00,60.6,41.3,29.91,SSE,157,11.4,21.0,49,0.00,,,0.00,LWC V1.12 B30,2013-07-11 12:54:00,
2013-07-11 06:00:00,60.6,41.3,29.91,SSE,157,10.1,12.3,49,0.00,,,0.00,LWC V1.12 B30,2013-07-11 13:00:00,
2013-07-11 06:06:00,61.0,42.2,29.91,NNW,337,14.1,16.1,50,0.00,,,0.00,LWC V1.12 B30,2013-07-11 13:06:00,
2013-07-11 06:11:00,61.3,42.0,29.91,South,180,11.4,15.9,49,0.00,,,0.00,LWC V1.12 B30,2013-07-11 13:11:00,
2013-07-11 06:16:00,61.3,42.0,29.90,SE,135,8.1,14.3,49,0.00,,,0.00,LWC V1.12 B30,2013-07-11 13:16:00,
2013-07-11 06:21:00,61.5,42.2,29.89,SSE,157,9.8,19.7,49,0.00,,,0.00,LWC V1.12 B30,2013-07-11 13:21:00,
2013-07-11 06:26:00,61.3,42.0,29.89,SSE,157,14.3,14.3,49,0.00,,,0.00,LWC V1.12 B30,2013-07-11 13:26:00,
2013-07-11 06:31:00,61.3,42.0,29.88,SSE,157,14.5,21.0,49,0.00,,,0.00,LWC V1.12 B30,2013-07-11 13:31:00,
2013-07-11 06:36:00,61.2,41.8,29.88,South,180,10.5,15.4,49,0.00,,,0.00,LWC V1.12 B30,2013-07-11 13:36:00,
2013-07-11 06:41:00,61.3,42.0,29.89,SSE,157,7.2,22.6,49,0.00,,,0.00,LWC V1.12 B30,2013-07-11 13:41:00,
2013-07-11 06:46:00,61.2,41.8,29.89,SSE,157,11.4,11.4,49,0.00,,,0.00,LWC V1.12 B30,2013-07-11 13:46:00,
2013-07-11 06:51:00,61.2,42.4,29.90,SSE,157,10.5,21.2,50,0.00,,,0.00,LWC V1.12 B30,2013-07-11 13:51:00,
2013-07-11 06:56:00,61.2,41.8,29.90,NNW,337,14.1,14.1,49,0.00,,,0.00,LWC V1.12 B30,2013-07-11 13:56:00,
2013-07-11 07:01:00,61.2,42.4,29.90,SSE,157,9.2,15.9,50,0.00,,,0.00,LWC V1.12 B30,2013-07-11 14:01:00,
2013-07-11 07:06:00,61.5,42.7,29.90,South,180,7.4,19.0,50,0.00,,,0.00,LWC V1.12 B30,2013-07-11 14:06:00,
2013-07-11 07:11:00,61.5,42.7,29.90,SE,135,9.8,16.3,50,0.00,,,0.00,LWC V1.12 B30,2013-07-11 14:11:00,
2013-07-11 07:17:00,61.9,43.1,29.90,SSE,157,13.4,21.2,50,0.00,,,0.00,LWC V1.12 B30,2013-07-11 14:17:00,
2013-07-11 07:22:00,62.2,43.4,29.90,SE,135,11.2,14.8,50,0.00,,,0.00,LWC V1.12 B30,2013-07-11 14:22:00,
2013-07-11 07:27:00,62.4,43.5,29.90,SE,135,4.9,9.6,50,0.00,,,0.00,LWC V1.12 B30,2013-07-11 14:27:00,
2013-07-11 07:33:00,63.0,43.4,29.91,SSE,157,3.8,18.3,49,0.00,,,0.00,LWC V1.12 B30,2013-07-11 14:33:00,
2013-07-11 07:38:00,63.1,43.0,29.90,SSE,157,7.2,11.0,48,0.00,,,0.00,LWC V1.12 B30,2013-07-11 14:38:00,
2013-07-11 07:43:00,63.5,43.4,29.90,SSW,202,11.6,13.9,48,0.00,,,0.00,LWC V1.12 B30,2013-07-11 14:43:00,
2013-07-11 07:48:00,64.0,43.8,29.89,ESE,112,13.2,13.2,48,0.00,,,0.00,LWC V1.12 B30,2013-07-11 14:48:00,
2013-07-11 07:53:00,64.2,44.0,29.89,South,180,11.2,19.7,48,0.00,,,0.00,LWC V1.12 B30,2013-07-11 14:53:00,
2013-07-11 07:58:00,64.2,44.0,29.89,SSW,202,9.6,9.6,48,0.00,,,0.00,LWC V1.12 B30,2013-07-11 14:58:00,
2013-07-11 08:03:00,64.8,43.9,29.89,SSE,157,5.4,15.2,47,0.00,,,0.00,LWC V1.12 B30,2013-07-11 15:03:00,
2013-07-11 08:08:00,65.7,44.8,29.89,SE,135,16.3,17.9,47,0.00,,,0.00,LWC V1.12 B30,2013-07-11 15:08:00,
2013-07-11 08:13:00,66.2,44.7,29.89,South,180,11.0,14.5,46,0.00,,,0.00,LWC V1.12 B30,2013-07-11 15:13:00,
2013-07-11 08:18:00,67.1,45.0,29.89,SE,135,8.7,11.2,45,0.00,,,0.00,LWC V1.12 B30,2013-07-11 15:18:00,
2013-07-11 08:24:00,68.2,45.3,29.89,SSW,202,4.7,8.5,44,0.00,,,0.00,LWC V1.12 B30,2013-07-11 15:24:00,
2013-07-11 08:30:00,68.7,45.8,29.90,SSE,157,7.4,14.5,44,0.00,,,0.00,LWC V1.12 B30,2013-07-11 15:30:00,
2013-07-11 08:35:00,69.4,45.9,29.90,SSE,157,2.5,8.5,43,0.00,,,0.00,LWC V1.12 B30,2013-07-11 15:35:00,
2013-07-11 08:40:00,69.8,45.6,29.90,SSE,157,3.8,21.0,42,0.00,,,0.00,LWC V1.12 B30,2013-07-11 15:40:00,
2013-07-11 08:45:00,70.2,45.9,29.90,ESE,112,8.5,11.2,42,0.00,,,0.00,LWC V1.12 B30,2013-07-11 15:45:00,
2013-07-11 08:50:00,70.5,46.3,29.90,SW,225,9.6,11.2,42,0.00,,,0.00,LWC V1.12 B30,2013-07-11 15:50:00,
2013-07-11 08:55:00,71.2,46.9,29.90,ESE,112,7.2,9.2,42,0.00,,,0.00,LWC V1.12 B30,2013-07-11 15:55:00,
2013-07-11 09:00:00,71.8,46.8,29.90,South,180,3.6,10.7,41,0.00,,,0.00,LWC V1.12 B30,2013-07-11 16:00:00,
2013-07-11 09:06:00,72.3,46.7,29.90,SSE,157,8.1,14.5,40,0.00,,,0.00,LWC V1.12 B30,2013-07-11 16:06:00,
2013-07-11 09:11:00,72.5,46.1,29.90,SSW,202,12.1,15.7,39,0.00,,,0.00,LWC V1.12 B30,2013-07-11 16:11:00,
2013-07-11 09:16:00,72.9,47.2,29.91,South,180,8.9,14.1,40,0.00,,,0.00,LWC V1.12 B30,2013-07-11 16:16:00,
2013-07-11 09:21:00,73.2,46.7,29.91,SSE,157,3.8,8.3,39,0.00,,,0.00,LWC V1.12 B30,2013-07-11 16:21:00,
2013-07-11 09:26:00,73.9,47.4,29.91,SSW,202,9.4,10.7,39,0.00,,,0.00,LWC V1.12 B30,2013-07-11 16:26:00,
2013-07-11 09:31:00,74.3,47.0,29.91,South,180,4.5,11.6,38,0.00,,,0.00,LWC V1.12 B30,2013-07-11 16:31:00,
2013-07-11 09:36:00,74.8,47.4,29.91,NE,45,8.7,10.5,38,0.00,,,0.00,LWC V1.12 B30,2013-07-11 16:36:00,
2013-07-11 09:41:00,75.0,46.8,29.90,WSW,247,5.8,5.8,37,0.00,,,0.00,LWC V1.12 B30,2013-07-11 16:41:00,
2013-07-11 09:46:00,75.4,47.2,29.91,SSE,157,5.1,17.4,37,0.00,,,0.00,LWC V1.12 B30,2013-07-11 16:46:00,
2013-07-11 09:51:00,75.9,47.7,29.91,South,180,6.9,6.9,37,0.00,,,0.00,LWC V1.12 B30,2013-07-11 16:51:00,
2013-07-11 09:56:00,76.1,47.8,29.91,South,180,5.6,14.3,37,0.00,,,0.00,LWC V1.12 B30,2013-07-11 16:56:00,
2013-07-11 10:01:00,76.3,47.2,29.91,SSW,202,9.2,17.0,36,0.00,,,0.00,LWC V1.12 B30,2013-07-11 17:01:00,
2013-07-11 10:06:00,75.9,46.9,29.91,SW,225,6.3,9.6,36,0.00,,,0.00,LWC V1.12 B30,2013-07-11 17:06:00,
2013-07-11 10:11:00,75.9,46.9,29.91,SW,225,17.7,18.3,36,0.00,,,0.00,LWC V1.12 B30,2013-07-11 17:11:00,
2013-07-11 10:16:00,75.9,46.9,29.91,South,180,12.3,12.3,36,0.00,,,0.00,LWC V1.12 B30,2013-07-11 17:16:00,
2013-07-11 10:21:00,76.5,47.4,29.91,SE,135,9.6,12.3,36,0.00,,,0.00,LWC V1.12 B30,2013-07-11 17:21:00,
2013-07-11 10:27:00,76.8,47.7,29.92,South,180,1.6,11.2,36,0.00,,,0.00,LWC V1.12 B30,2013-07-11 17:27:00,
2013-07-11 10:32:00,77.2,47.3,29.92,SSW,202,10.3,11.9,35,0.00,,,0.00,LWC V1.12 B30,2013-07-11 17:32:00,
2013-07-11 10:37:00,77.2,47.3,29.92,West,270,4.7,10.5,35,0.00,,,0.00,LWC V1.12 B30,2013-07-11 17:37:00,
2013-07-11 10:42:00,77.5,47.6,29.92,SSW,202,10.5,10.7,35,0.00,,,0.00,LWC V1.12 B30,2013-07-11 17:42:00,
2013-07-11 10:48:00,77.2,47.3,29.91,SSW,202,6.3,10.3,35,0.00,,,0.00,LWC V1.12 B30,2013-07-11 17:48:00,
2013-07-11 10:53:00,77.5,47.6,29.92,SSE,157,5.8,11.2,35,0.00,,,0.00,LWC V1.12 B30,2013-07-11 17:53:00,
2013-07-11 10:58:00,78.1,48.0,29.92,South,180,13.6,18.1,35,0.00,,,0.00,LWC V1.12 B30,2013-07-11 17:58:00,
2013-07-11 11:03:00,78.6,48.5,29.91,South,180,3.8,16.3,34,0.00,,,0.00,LWC V1.12 B30,2013-07-11 18:03:00,
2013-07-11 11:08:00,78.6,46.9,29.92,SSW,202,2.9,14.3,33,0.00,,,0.00,LWC V1.12 B30,2013-07-11 18:08:00,
2013-07-11 11:13:00,79.0,48.8,29.92,SSW,202,14.3,14.3,35,0.00,,,0.00,LWC V1.12 B30,2013-07-11 18:13:00,
2013-07-11 11:18:00,79.3,48.4,29.92,SSW,202,2.9,5.8,34,0.00,,,0.00,LWC V1.12 B30,2013-07-11 18:18:00,
2013-07-11 11:23:00,79.3,48.4,29.92,West,270,5.1,5.1,34,0.00,,,0.00,LWC V1.12 B30,2013-07-11 18:23:00,
2013-07-11 11:28:00,79.3,48.4,29.91,ESE,112,5.6,9.6,34,0.00,,,0.00,LWC V1.12 B30,2013-07-11 18:28:00,
2013-07-11 11:33:00,79.7,49.5,29.92,SSE,157,6.9,8.9,35,0.00,,,0.00,LWC V1.12 B30,2013-07-11 18:33:00,
2013-07-11 11:39:00,80.6,49.5,29.91,SE,135,6.9,18.3,34,0.00,,,0.00,LWC V1.12 B30,2013-07-11 18:39:00,
2013-07-11 11:44:00,81.0,49.8,29.92,SSE,157,5.6,5.6,34,0.00,,,0.00,LWC V1.12 B30,2013-07-11 18:44:00,
2013-07-11 11:50:00,81.1,49.9,29.91,South,180,7.6,9.2,34,0.00,,,0.00,LWC V1.12 B30,2013-07-11 18:50:00,
2013-07-11 11:55:00,81.7,49.6,29.91,South,180,5.6,6.0,33,0.00,,,0.00,LWC V1.12 B30,2013-07-11 18:55:00,
2013-07-11 12:00:00,82.2,48.5,29.92,SW,225,14.3,18.3,31,0.00,,,0.00,LWC V1.12 B30,2013-07-11 19:00:00,
2013-07-11 12:05:00,82.2,50.1,29.92,South,180,3.4,4.5,33,0.00,,,0.00,LWC V1.12 B30,2013-07-11 19:05:00,
2013-07-11 12:10:00,82.6,48.8,29.91,South,180,6.0,9.2,31,0.00,,,0.00,LWC V1.12 B30,2013-07-11 19:10:00,
2013-07-11 12:15:00,82.6,49.6,29.92,South,180,7.4,11.0,32,0.00,,,0.00,LWC V1.12 B30,2013-07-11 19:15:00,
2013-07-11 12:20:00,82.6,50.4,29.92,SSW,202,5.6,7.6,33,0.00,,,0.00,LWC V1.12 B30,2013-07-11 19:20:00,
2013-07-11 12:25:00,82.9,49.1,29.92,SW,225,2.7,9.6,31,0.00,,,0.00,LWC V1.12 B30,2013-07-11 19:25:00,
2013-07-11 12:30:00,82.6,48.8,29.92,SSW,202,11.4,11.4,31,0.00,,,0.00,LWC V1.12 B30,2013-07-11 19:30:00,
2013-07-11 12:35:00,82.8,49.0,29.91,SSW,202,10.3,13.6,31,0.00,,,0.00,LWC V1.12 B30,2013-07-11 19:35:00,
2013-07-11 12:41:00,82.9,49.1,29.91,SW,225,3.1,7.6,31,0.00,,,0.00,LWC V1.12 B30,2013-07-11 19:41:00,
2013-07-11 12:46:00,82.9,48.3,29.91,SSE,157,6.5,13.0,30,0.00,,,0.00,LWC V1.12 B30,2013-07-11 19:46:00,
2013-07-11 12:52:00,83.1,48.5,29.91,SW,225,16.8,16.8,30,0.00,,,0.00,LWC V1.12 B30,2013-07-11 19:52:00,
2013-07-11 12:57:00,83.1,48.5,29.92,SW,225,4.0,7.6,30,0.00,,,0.00,LWC V1.12 B30,2013-07-11 19:57:00,
2013-07-11 13:02:00,83.5,48.8,29.91,South,180,16.5,21.2,30,0.00,,,0.00,LWC V1.12 B30,2013-07-11 20:02:00,
2013-07-11 13:07:00,83.5,47.8,29.91,SSE,157,11.9,13.2,29,0.00,,,0.00,LWC V1.12 B30,2013-07-11 20:07:00,
2013-07-11 13:12:00,83.7,47.9,29.91,South,180,7.2,13.6,29,0.00,,,0.00,LWC V1.12 B30,2013-07-11 20:12:00,
2013-07-11 13:17:00,83.5,47.8,29.91,SE,135,9.2,10.3,29,0.00,,,0.00,LWC V1.12 B30,2013-07-11 20:17:00,
2013-07-11 13:22:00,83.8,48.1,29.91,SW,225,12.5,17.0,29,0.00,,,0.00,LWC V1.12 B30,2013-07-11 20:22:00,
2013-07-11 13:27:00,83.8,47.0,29.91,South,180,5.6,16.8,28,0.00,,,0.00,LWC V1.12 B30,2013-07-11 20:27:00,
2013-07-11 13:32:00,84.0,47.2,29.91,South,180,3.4,11.9,28,0.00,,,0.00,LWC V1.12 B30,2013-07-11 20:32:00,
2013-07-11 13:37:00,84.6,46.6,29.91,SSW,202,6.7,10.3,27,0.00,,,0.00,LWC V1.12 B30,2013-07-11 20:37:00,
2013-07-11 13:42:00,84.7,46.7,29.91,ESE,112,2.9,15.9,27,0.00,,,0.00,LWC V1.12 B30,2013-07-11 20:42:00,
2013-07-11 13:47:00,84.9,46.9,29.91,SE,135,8.1,13.2,27,0.00,,,0.00,LWC V1.12 B30,2013-07-11 20:47:00,
2013-07-11 13:52:00,84.9,48.0,29.90,SSW,202,1.6,14.1,28,0.00,,,0.00,LWC V1.12 B30,2013-07-11 20:52:00,
2013-07-11 13:57:00,84.9,45.8,29.91,SW,225,7.4,7.8,26,0.00,,,0.00,LWC V1.12 B30,2013-07-11 20:57:00,
2013-07-11 14:02:00,84.7,45.7,29.91,South,180,8.5,8.5,26,0.00,,,0.00,LWC V1.12 B30,2013-07-11 21:02:00,
2013-07-11 14:07:00,84.7,46.7,29.91,South,180,15.9,15.9,27,0.00,,,0.00,LWC V1.12 B30,2013-07-11 21:07:00,
2013-07-11 14:12:00,84.6,45.5,29.91,SSE,157,5.6,11.4,26,0.00,,,0.00,LWC V1.12 B30,2013-07-11 21:12:00,
2013-07-11 14:17:00,84.6,45.5,29.91,SW,225,18.3,18.3,26,0.00,,,0.00,LWC V1.12 B30,2013-07-11 21:17:00,
2013-07-11 14:22:00,84.7,45.7,29.91,WSW,247,6.7,6.7,26,0.00,,,0.00,LWC V1.12 B30,2013-07-11 21:22:00,
2013-07-11 14:27:00,85.1,45.8,29.90,SSW,202,6.0,11.2,26,0.00,,,0.00,LWC V1.12 B30,2013-07-11 21:27:00,
2013-07-11 14:32:00,85.6,46.4,29.90,South,180,6.9,14.3,26,0.00,,,0.00,LWC V1.12 B30,2013-07-11 21:32:00,
2013-07-11 14:38:00,85.8,46.6,29.90,SSW,202,4.7,6.9,26,0.00,,,0.00,LWC V1.12 B30,2013-07-11 21:38:00,
2013-07-11 14:43:00,86.2,45.8,29.91,WSW,247,0.0,15.7,25,0.00,,,0.00,LWC V1.12 B30,2013-07-11 21:43:00,
2013-07-11 14:48:00,86.4,43.7,29.91,SSW,202,15.9,15.9,23,0.00,,,0.00,LWC V1.12 B30,2013-07-11 21:48:00,
2013-07-11 14:54:00,86.4,43.8,29.90,SE,135,3.8,11.2,23,0.00,,,0.00,LWC V1.12 B30,2013-07-11 21:54:00,
2013-07-11 14:59:00,86.4,42.7,29.90,NNW,337,6.0,6.9,22,0.00,,,0.00,LWC V1.12 B30,2013-07-11 21:59:00,
2013-07-11 15:05:00,85.8,41.2,29.90,NW,315,4.2,10.7,21,0.00,,,0.00,LWC V1.12 B30,2013-07-11 22:05:00,
2013-07-11 15:10:00,85.6,42.1,29.90,South,180,7.4,12.7,22,0.00,,,0.00,LWC V1.12 B30,2013-07-11 22:10:00,
2013-07-11 15:15:00,85.8,42.3,29.90,SW,225,6.9,8.9,22,0.00,,,0.00,LWC V1.12 B30,2013-07-11 22:15:00,
2013-07-11 15:20:00,86.4,42.7,29.90,SSW,202,12.1,16.8,22,0.00,,,0.00,LWC V1.12 B30,2013-07-11 22:20:00,
2013-07-11 15:25:00,86.4,42.7,29.90,SSW,202,11.6,11.6,22,0.00,,,0.00,LWC V1.12 B30,2013-07-11 22:25:00,
2013-07-11 15:30:00,86.5,42.9,29.90,SSW,202,13.4,17.4,22,0.00,,,0.00,LWC V1.12 B30,2013-07-11 22:30:00,
2013-07-11 15:35:00,86.4,41.7,29.89,East,90,4.7,14.1,21,0.00,,,0.00,LWC V1.12 B30,2013-07-11 22:35:00,
2013-07-11 15:40:00,86.2,41.5,29.90,SSW,202,6.0,7.4,21,0.00,,,0.00,LWC V1.12 B30,2013-07-11 22:40:00,
2013-07-11 15:45:00,85.8,42.3,29.89,SE,135,10.7,11.2,22,0.00,,,0.00,LWC V1.12 B30,2013-07-11 22:45:00,
2013-07-11 15:50:00,86.2,41.5,29.89,South,180,9.4,11.4,21,0.00,,,0.00,LWC V1.12 B30,2013-07-11 22:50:00,
2013-07-11 15:55:00,86.2,41.5,29.90,SW,225,13.4,17.4,21,0.00,,,0.00,LWC V1.12 B30,2013-07-11 22:55:00,
2013-07-11 16:00:00,85.8,41.2,29.89,SSW,202,4.7,6.5,21,0.00,,,0.00,LWC V1.12 B30,2013-07-11 23:00:00,
2013-07-11 16:05:00,86.2,40.4,29.89,South,180,7.4,19.0,20,0.00,,,0.00,LWC V1.12 B30,2013-07-11 23:05:00,
2013-07-11 16:10:00,86.2,38.7,29.89,SSW,202,8.3,23.3,19,0.00,,,0.00,LWC V1.12 B30,2013-07-11 23:10:00,
2013-07-11 16:15:00,85.6,38.3,29.89,South,180,0.0,5.1,19,0.00,,,0.00,LWC V1.12 B30,2013-07-11 23:15:00,
2013-07-11 16:21:00,85.6,38.3,29.89,South,180,12.3,14.3,19,0.00,,,0.00,LWC V1.12 B30,2013-07-11 23:21:00,
2013-07-11 16:26:00,85.8,38.4,29.89,SSW,202,7.2,13.4,19,0.00,,,0.00,LWC V1.12 B30,2013-07-11 23:26:00,
2013-07-11 16:31:00,85.6,36.6,29.89,SSW,202,14.1,21.7,18,0.00,,,0.00,LWC V1.12 B30,2013-07-11 23:31:00,
2013-07-11 16:36:00,85.3,34.6,29.89,SW,225,6.7,12.7,17,0.00,,,0.00,LWC V1.12 B30,2013-07-11 23:36:00,
2013-07-11 16:42:00,84.7,32.4,29.89,WSW,247,4.5,8.9,16,0.00,,,0.00,LWC V1.12 B30,2013-07-11 23:42:00,
2013-07-11 16:47:00,84.0,31.9,29.89,South,180,6.5,8.3,16,0.00,,,0.00,LWC V1.12 B30,2013-07-11 23:47:00,
2013-07-11 16:52:00,83.8,30.0,29.90,SSW,202,15.7,23.0,15,0.00,,,0.00,LWC V1.12 B30,2013-07-11 23:52:00,
2013-07-11 16:58:00,83.3,29.6,29.89,West,270,3.8,7.6,15,0.00,,,0.00,LWC V1.12 B30,2013-07-11 23:58:00,
2013-07-11 17:03:00,83.1,27.8,29.89,SSW,202,17.2,17.2,14,0.00,,,0.00,LWC V1.12 B30,2013-07-12 00:03:00,
2013-07-11 17:08:00,82.6,29.1,29.89,SSE,157,13.6,13.6,15,0.00,,,0.00,LWC V1.12 B30,2013-07-12 00:08:00,
2013-07-11 17:13:00,82.2,28.8,29.89,SW,225,3.8,7.2,15,0.00,,,0.00,LWC V1.12 B30,2013-07-12 00:13:00,
2013-07-11 17:18:00,82.2,27.1,29.88,South,180,5.6,13.6,14,0.00,,,0.00,LWC V1.12 B30,2013-07-12 00:18:00,
2013-07-11 17:23:00,82.0,27.0,29.89,South,180,5.6,11.4,14,0.00,,,0.00,LWC V1.12 B30,2013-07-12 00:23:00,
2013-07-11 17:28:00,82.0,28.7,29.88,West,270,5.4,5.4,15,0.00,,,0.00,LWC V1.12 B30,2013-07-12 00:28:00,
2013-07-11 17:33:00,82.0,28.7,29.88,SSW,202,6.9,6.9,15,0.00,,,0.00,LWC V1.12 B30,2013-07-12 00:33:00,
2013-07-11 17:40:00,82.2,30.5,29.89,SW,225,3.4,10.5,16,0.00,,,0.00,LWC V1.12 B30,2013-07-12 00:40:00,
2013-07-11 17:45:00,82.2,30.5,29.89,South,180,11.0,13.2,16,0.00,,,0.00,LWC V1.12 B30,2013-07-12 00:45:00,
2013-07-11 17:50:00,82.0,30.3,29.89,West,270,6.5,6.5,16,0.00,,,0.00,LWC V1.12 B30,2013-07-12 00:50:00,
2013-07-11 17:56:00,82.0,30.3,29.88,SSW,202,4.5,11.6,16,0.00,,,0.00,LWC V1.12 B30,2013-07-12 00:56:00,
2013-07-11 18:01:00,81.7,30.1,29.88,WSW,247,3.8,10.5,16,0.00,,,0.00,LWC V1.12 B30,2013-07-12 01:01:00,
2013-07-11 18:06:00,81.3,31.5,29.88,SSW,202,5.8,12.5,17,0.00,,,0.00,LWC V1.12 B30,2013-07-12 01:06:00,
2013-07-11 18:11:00,81.1,31.3,29.88,SSW,202,2.0,2.0,17,0.00,,,0.00,LWC V1.12 B30,2013-07-12 01:11:00,
2013-07-11 18:16:00,81.1,31.3,29.88,North,0,3.8,15.9,17,0.00,,,0.00,LWC V1.12 B30,2013-07-12 01:16:00,
2013-07-11 18:21:00,81.1,29.6,29.88,West,270,2.9,13.9,16,0.00,,,0.00,LWC V1.12 B30,2013-07-12 01:21:00,
2013-07-11 18:26:00,81.1,29.6,29.89,South,180,7.6,8.3,16,0.00,,,0.00,LWC V1.12 B30,2013-07-12 01:26:00,
2013-07-11 18:31:00,80.8,29.3,29.89,SSW,202,2.2,17.2,16,0.00,,,0.00,LWC V1.12 B30,2013-07-12 01:31:00,
2013-07-11 18:37:00,80.6,29.2,29.89,SSW,202,13.4,17.7,16,0.00,,,0.00,LWC V1.12 B30,2013-07-12 01:37:00,
2013-07-11 18:42:00,80.4,29.0,29.89,South,180,8.5,17.0,16,0.00,,,0.00,LWC V1.12 B30,2013-07-12 01:42:00,
2013-07-11 18:48:00,80.2,30.6,29.88,SW,225,2.5,6.5,17,0.00,,,0.00,LWC V1.12 B30,2013-07-12 01:48:00,
2013-07-11 18:53:00,80.4,29.0,29.89,SSW,202,7.6,7.8,16,0.00,,,0.00,LWC V1.12 B30,2013-07-12 01:53:00,
2013-07-11 18:58:00,80.4,29.0,29.89,SW,225,7.6,7.6,16,0.00,,,0.00,LWC V1.12 B30,2013-07-12 01:58:00,
2013-07-11 19:03:00,80.4,29.0,29.89,SSW,202,5.1,9.2,16,0.00,,,0.00,LWC V1.12 B30,2013-07-12 02:03:00,
2013-07-11 19:08:00,80.4,29.0,29.89,SW,225,1.8,5.1,16,0.00,,,0.00,LWC V1.12 B30,2013-07-12 02:08:00,
2013-07-11 19:13:00,80.8,29.3,29.89,South,180,7.4,7.4,16,0.00,,,0.00,LWC V1.12 B30,2013-07-12 02:13:00,
2013-07-11 19:18:00,80.8,29.3,29.88,SSW,202,12.1,16.3,16,0.00,,,0.00,LWC V1.12 B30,2013-07-12 02:18:00,
2013-07-11 19:23:00,80.8,29.2,29.89,SSW,202,9.2,13.2,16,0.00,,,0.00,LWC V1.12 B30,2013-07-12 02:23:00,
2013-07-11 19:28:00,80.4,27.3,29.88,SSW,202,15.7,15.7,15,0.00,,,0.00,LWC V1.12 B30,2013-07-12 02:28:00,
2013-07-11 19:33:00,80.4,29.0,29.89,West,270,0.0,9.4,16,0.00,,,0.00,LWC V1.12 B30,2013-07-12 02:33:00,
2013-07-11 19:38:00,80.4,29.0,29.88,SSW,202,4.0,6.5,16,0.00,,,0.00,LWC V1.12 B30,2013-07-12 02:38:00,
2013-07-11 19:43:00,80.4,29.0,29.89,SSW,202,1.6,4.5,16,0.00,,,0.00,LWC V1.12 B30,2013-07-12 02:43:00,
2013-07-11 19:48:00,81.0,29.3,29.89,SSW,202,4.2,5.1,16,0.00,,,0.00,LWC V1.12 B30,2013-07-12 02:48:00,
2013-07-11 19:53:00,81.3,29.8,29.89,SSW,202,8.9,8.9,16,0.00,,,0.00,LWC V1.12 B30,2013-07-12 02:53:00,
2013-07-11 19:58:00,82.2,28.8,29.89,SSW,202,9.6,11.4,15,0.00,,,0.00,LWC V1.12 B30,2013-07-12 02:58:00,
2013-07-11 20:03:00,84.9,30.9,29.89,SSW,202,7.4,13.4,15,0.00,,,0.00,LWC V1.12 B30,2013-07-12 03:03:00,
2013-07-11 20:08:00,87.1,30.9,29.89,SSW,202,4.2,5.4,14,0.00,,,0.00,LWC V1.12 B30,2013-07-12 03:08:00,
2013-07-11 20:13:00,88.7,32.2,29.89,SSW,202,2.5,5.4,14,0.00,,,0.00,LWC V1.12 B30,2013-07-12 03:13:00,
2013-07-11 20:19:00,89.8,31.3,29.89,SSW,202,4.9,4.9,13,0.00,,,0.00,LWC V1.12 B30,2013-07-12 03:19:00,
2013-07-11 20:24:00,89.2,30.8,29.89,SSW,202,2.0,3.6,13,0.00,,,0.00,LWC V1.12 B30,2013-07-12 03:24:00,
2013-07-11 20:29:00,85.8,30.5,29.89,SSW,202,2.9,4.0,14,0.00,,,0.00,LWC V1.12 B30,2013-07-12 03:29:00,
2013-07-11 20:34:00,82.9,27.6,29.89,WSW,247,0.9,5.6,14,0.00,,,0.00,LWC V1.12 B30,2013-07-12 03:34:00,
2013-07-11 20:40:00,79.9,26.9,29.89,SSW,202,2.2,6.0,15,0.00,,,0.00,LWC V1.12 B30,2013-07-12 03:40:00,
2013-07-11 20:45:00,77.7,26.8,29.90,SSW,202,1.1,3.1,16,0.00,,,0.00,LWC V1.12 B30,2013-07-12 03:45:00,
2013-07-11 20:50:00,76.1,25.6,29.90,SSW,202,5.8,6.5,16,0.00,,,0.00,LWC V1.12 B30,2013-07-12 03:50:00,
2013-07-11 20:55:00,75.0,24.7,29.90,SSW,202,2.9,4.7,16,0.00,,,0.00,LWC V1.12 B30,2013-07-12 03:55:00,
2013-07-11 21:01:00,74.1,25.6,29.90,South,180,2.9,6.3,17,0.00,,,0.00,LWC V1.12 B30,2013-07-12 04:01:00,
2013-07-11 21:02:00,74.1,25.6,29.90,SSE,157,2.7,2.9,17,0.00,,,0.00,LWC V1.12 B30,2013-07-12 04:02:00,
2013-07-11 21:03:00,73.8,25.2,29.91,SSE,157,3.1,4.0,17,0.00,,,0.00,LWC V1.12 B30,2013-07-12 04:03:00,
2013-07-11 21:05:00,73.4,25.1,29.90,SW,225,2.5,4.5,17,0.00,,,0.00,LWC V1.12 B30,2013-07-12 04:05:00,
2013-07-11 21:10:00,72.7,24.5,29.91,SSE,157,0.7,2.0,17,0.00,,,0.00,LWC V1.12 B30,2013-07-12 04:10:00,
2013-07-11 21:15:00,72.1,24.0,29.91,South,180,2.7,4.0,17,0.00,,,0.00,LWC V1.12 B30,2013-07-12 04:15:00,
2013-07-11 21:20:00,71.4,25.0,29.91,South,180,2.2,8.7,18,0.00,,,0.00,LWC V1.12 B30,2013-07-12 04:20:00,
2013-07-11 21:25:00,70.9,24.6,29.91,SSE,157,2.5,5.1,18,0.00,,,0.00,LWC V1.12 B30,2013-07-12 04:25:00,
2013-07-11 21:30:00,70.5,24.3,29.91,SSE,157,3.6,5.1,18,0.00,,,0.00,LWC V1.12 B30,2013-07-12 04:30:00,
2013-07-11 21:35:00,70.0,23.9,29.91,South,180,3.6,4.0,18,0.00,,,0.00,LWC V1.12 B30,2013-07-12 04:35:00,
2013-07-11 21:40:00,69.6,25.2,29.91,SSE,157,4.7,6.3,19,0.00,,,0.00,LWC V1.12 B30,2013-07-12 04:40:00,
2013-07-11 21:45:00,69.3,24.9,29.91,South,180,3.1,5.1,19,0.00,,,0.00,LWC V1.12 B30,2013-07-12 04:45:00,
2013-07-11 21:50:00,68.9,24.6,29.91,SSE,157,3.8,7.2,19,0.00,,,0.00,LWC V1.12 B30,2013-07-12 04:50:00,
2013-07-11 21:55:00,68.7,24.5,29.91,SSW,202,8.1,8.1,19,0.00,,,0.00,LWC V1.12 B30,2013-07-12 04:55:00,
2013-07-11 22:00:00,68.5,24.3,29.91,SSW,202,3.6,6.3,19,0.00,,,0.00,LWC V1.12 B30,2013-07-12 05:00:00,
2013-07-11 22:05:00,68.5,26.9,29.91,SSE,157,5.8,8.5,21,0.00,,,0.00,LWC V1.12 B30,2013-07-12 05:05:00,
2013-07-11 22:11:00,68.7,26.1,29.91,South,180,4.0,7.6,20,0.00,,,0.00,LWC V1.12 B30,2013-07-12 05:11:00,
2013-07-11 22:16:00,68.7,26.1,29.90,SSW,202,4.0,12.7,20,0.00,,,0.00,LWC V1.12 B30,2013-07-12 05:16:00,
2013-07-11 22:21:00,68.7,28.1,29.90,ESE,112,4.9,6.7,22,0.00,,,0.00,LWC V1.12 B30,2013-07-12 05:21:00,
2013-07-11 22:26:00,68.7,28.1,29.89,WSW,247,1.8,9.4,22,0.00,,,0.00,LWC V1.12 B30,2013-07-12 05:26:00,
2013-07-11 22:31:00,68.7,28.1,29.89,SW,225,4.0,6.3,22,0.00,,,0.00,LWC V1.12 B30,2013-07-12 05:31:00,
2013-07-11 22:36:00,68.5,28.9,29.90,SSW,202,4.5,6.3,23,0.00,,,0.00,LWC V1.12 B30,2013-07-12 05:36:00,
2013-07-11 22:41:00,68.5,30.9,29.90,SSW,202,4.2,8.9,25,0.00,,,0.00,LWC V1.12 B30,2013-07-12 05:41:00,
2013-07-11 22:46:00,68.5,30.8,29.89,SW,225,3.8,9.2,25,0.00,,,0.00,LWC V1.12 B30,2013-07-12 05:46:00,
2013-07-11 22:51:00,68.4,31.8,29.90,SSW,202,2.2,14.1,26,0.00,,,0.00,LWC V1.12 B30,2013-07-12 05:51:00,
2013-07-11 22:56:00,68.2,32.6,29.90,SSW,202,0.0,7.4,27,0.00,,,0.00,LWC V1.12 B30,2013-07-12 05:56:00,
2013-07-11 23:01:00,68.0,31.5,29.90,SW,225,0.0,0.0,26,0.00,,,0.00,LWC V1.12 B30,2013-07-12 06:01:00,
2013-07-11 23:06:00,67.8,31.3,29.90,SSW,202,3.1,3.8,26,0.00,,,0.00,LWC V1.12 B30,2013-07-12 06:06:00,
2013-07-11 23:11:00,67.6,31.2,29.90,SSW,202,3.1,4.7,26,0.00,,,0.00,LWC V1.12 B30,2013-07-12 06:11:00,
2013-07-11 23:16:00,67.3,30.8,29.89,SSW,202,2.9,14.1,26,0.00,,,0.00,LWC V1.12 B30,2013-07-12 06:16:00,
2013-07-11 23:21:00,67.3,30.8,29.90,South,180,0.0,0.0,26,0.00,,,0.00,LWC V1.12 B30,2013-07-12 06:21:00,
2013-07-11 23:26:00,66.9,31.5,29.89,SSE,157,2.5,3.6,27,0.00,,,0.00,LWC V1.12 B30,2013-07-12 06:26:00,
2013-07-11 23:31:00,66.7,31.4,29.89,SSE,157,0.0,2.5,27,0.00,,,0.00,LWC V1.12 B30,2013-07-12 06:31:00,
2013-07-11 23:36:00,66.4,31.1,29.90,SE,135,2.2,3.6,27,0.00,,,0.00,LWC V1.12 B30,2013-07-12 06:36:00,
2013-07-11 23:41:00,66.0,30.8,29.89,SE,135,4.0,6.7,27,0.00,,,0.00,LWC V1.12 B30,2013-07-12 06:41:00,
2013-07-11 23:46:00,65.3,30.2,29.89,SE,135,3.6,3.8,27,0.00,,,0.00,LWC V1.12 B30,2013-07-12 06:46:00,
2013-07-11 23:52:00,64.6,30.5,29.88,SSE,157,2.0,4.7,28,0.00,,,0.00,LWC V1.12 B30,2013-07-12 06:52:00,
2013-07-11 23:57:00,64.2,30.2,29.88,ESE,112,3.6,3.6,28,0.00,,,0.00,LWC V1.12 B30,2013-07-12 06:57:00,